Погода в Алуксне

Латвия     57˚25′09″N   27˚03′06″E
темп.,
°C
ветер,
м/с
пор.,
м/с
влажн.,
%
обл.,
%
осадки,
мм/ч
давл.,
гПа
погр.,
м
6 декабря, вс
вс623:00+2˚ю6138799 0.0 1024709
02:00+3˚ю61389100 0.0 1025669
05:00+3˚ю61388100 0.0 1025724
08:00+2˚ю61386100 0.0 1027743
11:00+2˚ююв6148481 0.0 1027704
14:00ююв7148270 0.0 1028638
17:00ююв616750 0.0 1028595
20:00−1˚ююв617580 0.0 1029591
7 декабря, пн
пн723:00−2˚ююв614590 0.0 1030534
02:00−2˚ююв614570 0.0 1031515
05:00−2˚ююв614640 0.0 1030545
08:00−3˚ююв614660 0.0 1030552
11:00−2˚ююв613610 0.0 1030544
14:00−3˚ююв613590 0.0 1030570
17:00−3˚ююв614610 0.0 1030608
20:00−4˚ююв615620 0.0 1030567
8 декабря, вт
вт823:00−4˚ююв613600 0.0 1030545
02:00−4˚юв512600 0.0 1031530
05:00−5˚юв512620 0.0 1031531
08:00−5˚юв512650 0.0 1031463
11:00−5˚юв511620 0.0 1031416
14:00−4˚юв511580 0.0 1031413
17:00−5˚юв512640 0.0 1031406
20:00−5˚юв512670 0.0 1032374
9 декабря, ср
ср923:00−6˚юв511700 0.0 1032369
02:00−6˚юв511700 0.0 1032386
05:00−6˚юв411710 0.0 1032423
08:00−6˚юв411690 0.0 1032449
11:00−5˚юв49630 0.0 1032410
14:00−4˚юв49600 0.0 1031356
17:00−5˚юв410670 0.0 1031339
20:00−5˚юв49720 0.0 1030323
10 декабря, чт
чт1023:00−5˚юв497467 0.0 1029335
02:00−6˚юв4107772 0.0 1029373
05:00−6˚юв41079100 0.0 1028451
08:00−6˚юв498491 0.0 1028423
11:00−5˚юв498348 0.0 1028398
14:00−4˚юв488573 0.0 1027410
17:00−4˚юв488998 0.1 1026357
20:00−4˚юв488995 0.1 1026329